"Timestamp","TZ","WindDir_Mean (deg)","WindSpd_Mean (km/h)","WindSpd_Min (km/h)","WindSpd_Max (km/h)","Temp_Mean (deg)","RH_Mean (%)","MSLP_Mean (hPa)","Rain_Acc (mm)","Rain_Intensity (mm/h)","Hail_Acc (hits/cm2)","Hail_Intensity (hits/cm2hr)","Solar_Mean (W/m2)"
2022/10/02 00:00:00.017,n,260,1.44,0.72,1.8,14.6,83,1018.32,0,0,0,0,0.036545
2022/10/02 00:01:00.001,n,236,2.16,1.8,2.16,14.6,83,1018.32,0,0,0,0,0.039177
2022/10/02 00:02:00.003,n,263,3.24,2.52,3.6,14.5,82.7,1018.32,0,0,0,0,0.037422
2022/10/02 00:03:00.005,n,278,5.04,4.68,5.4,14.5,82.8,1018.32,0,0,0,0,0.0383
2022/10/02 00:04:00.008,n,266,3.96,3.96,4.68,14.5,82.8,1018.42,0,0,0,0,0.040894
2022/10/02 00:05:00.009,n,273,4.68,4.32,5.04,14.5,82.7,1018.42,0,0,0,0,0.040054
2022/10/02 00:06:00.012,n,255,4.68,4.32,5.4,14.5,82.6,1018.42,0,0,0,0,0.040054
2022/10/02 00:07:00.002,n,219,2.16,2.16,2.88,14.5,82.7,1018.42,0,0,0,0,0.041771
2022/10/02 00:08:00.015,n,189,1.44,0.72,1.8,14.5,82.8,1018.42,0,0,0,0,0.039177
2022/10/02 00:09:00.009,n,239,4.68,3.96,5.76,14.5,83,1018.42,0,0,0,0,0.040054
2022/10/02 00:10:00.001,n,273,4.32,3.96,4.68,14.5,82.7,1018.42,0,0,0,0,0.039177
2022/10/02 00:11:00.001,n,269,3.96,3.24,4.68,14.5,82.7,1018.42,0,0,0,0,0.041771
2022/10/02 00:12:00.001,n,200,1.44,1.44,1.8,14.5,82.8,1018.42,0,0,0,0,0.039177
2022/10/02 00:13:00.003,n,118,2.16,1.8,2.52,14.5,82.8,1018.42,0,0,0,0,0.0383
2022/10/02 00:14:00.007,n,168,3.24,2.52,3.6,14.5,82.9,1018.42,0,0,0,0,0.0383
2022/10/02 00:15:00.009,n,193,2.88,2.52,3.24,14.5,83,1018.42,0,0,0,0,0.040894
2022/10/02 00:16:00.013,n,225,3.24,2.52,3.96,14.6,82.9,1018.32,0,0,0,0,0.040054
2022/10/02 00:17:00.001,n,224,4.32,3.6,5.4,14.6,82.9,1018.32,0,0,0,0,0.044403
2022/10/02 00:18:00.003,n,77,1.8,0.36,4.32,14.6,82.9,1018.22,0,0,0,0,0.0383
2022/10/02 00:19:00.001,n,156,7.56,7.2,7.56,14.6,82.6,1018.22,0,0,0,0,0.037422
2022/10/02 00:20:00.005,n,135,7.56,7.2,7.56,14.5,82.5,1018.12,0,0,0,0,0.040054
2022/10/02 00:21:00.006,n,146,5.76,4.32,6.12,14.5,82.6,1018.12,0,0,0,0,0.040894
2022/10/02 00:22:00.002,n,91,1.08,0.72,1.08,14.5,82.9,1018.02,0,0,0,0,0.041771
2022/10/02 00:23:00.001,n,137,3.96,3.24,3.96,14.5,82.8,1018.02,0,0,0,0,0.041771
2022/10/02 00:24:00.010,n,180,3.96,3.24,4.68,14.5,82.9,1018.02,0,0,0,0,0.040054
2022/10/02 00:25:00.015,n,191,4.68,3.6,5.76,14.5,82.7,1018.02,0,0,0,0,0.037422
2022/10/02 00:26:00.015,n,184,6.12,5.04,6.48,14.5,82.8,1017.92,0,0,0,0,0.040054
2022/10/02 00:27:00.012,n,133,2.16,1.8,2.52,14.5,83,1017.92,0,0,0,0,0.041771
2022/10/02 00:28:00.001,n,183,4.32,1.8,5.76,14.5,83,1017.92,0,0,0,0,0.039177
2022/10/02 00:29:00.001,n,198,4.68,3.96,5.04,14.5,83.1,1017.92,0,0,0,0,0.0383
2022/10/02 00:30:00.002,n,153,2.16,1.44,2.52,14.5,82.9,1017.82,0,0,0,0,0.040894
2022/10/02 00:31:00.004,n,120,6.84,6.48,7.2,14.5,82.9,1017.82,0,0,0,0,0.042686
2022/10/02 00:32:00.002,n,140,5.04,4.68,5.4,14.4,82.9,1017.82,0,0,0,0,0.040894
2022/10/02 00:33:00.004,n,121,1.08,0.72,1.08,14.4,83.1,1017.72,0,0,0,0,0.040894
2022/10/02 00:34:00.007,n,114,2.88,2.16,3.24,14.4,83.1,1017.72,0,0,0,0,0.039177
2022/10/02 00:35:00.008,n,97,2.88,1.8,3.6,14.4,83.2,1017.62,0,0,0,0,0.040894
2022/10/02 00:36:00.011,n,109,2.52,2.16,3.24,14.5,83.1,1017.62,0,0,0,0,0.0383
2022/10/02 00:37:00.001,n,142,2.16,1.44,2.16,14.5,83.2,1017.62,0,0,0,0,0.040054
2022/10/02 00:38:00.002,n,139,5.4,4.68,6.12,14.5,83.1,1017.62,0,0,0,0,0.034828
2022/10/02 00:39:00.003,n,112,2.88,2.16,3.24,14.4,82.9,1017.62,0,0,0,0,0.036545
2022/10/02 00:40:00.004,n,136,4.68,3.96,5.04,14.4,82.8,1017.62,0,0,0,0,0.040894
2022/10/02 00:41:00.008,n,130,4.32,3.96,5.04,14.4,82.7,1017.62,0,0,0,0,0.0383
2022/10/02 00:42:00.011,n,151,5.76,4.68,6.48,14.3,82.8,1017.52,0,0,0,0,0.033073
2022/10/02 00:43:00.012,n,158,6.48,5.76,7.56,14.3,82.7,1017.52,0,0,0,0,0.036545
2022/10/02 00:44:00.014,n,135,3.24,2.16,4.32,14.2,82.9,1017.52,0,0,0,0,0.037422
2022/10/02 00:45:00.017,n,171,0.72,0.72,1.08,14.2,83,1017.52,0,0,0,0,0.037422
2022/10/02 00:46:00.004,n,150,1.08,1.08,1.44,14.3,83.2,1017.42,0,0,0,0,0.036545
2022/10/02 00:47:00.001,n,125,3.6,2.88,3.96,14.3,83,1017.42,0,0,0,0,0.036545
2022/10/02 00:48:00.002,n,205,3.24,2.16,4.32,14.2,83,1017.42,0,0,0,0,0.033073
2022/10/02 00:49:00.001,n,212,4.32,4.32,4.68,14.2,83.2,1017.52,0,0,0,0,0.034828
2022/10/02 00:50:00.002,n,214,4.68,3.24,5.76,14.2,83.1,1017.52,0,0,0,0,0.035706
2022/10/02 00:51:00.006,n,195,5.76,5.4,6.12,14.2,83,1017.52,0,0,0,0,0.033951
2022/10/02 00:52:00.009,n,207,5.76,4.68,6.84,14.2,83.2,1017.52,0,0,0,0,0.033951
2022/10/02 00:53:00.013,n,272,1.44,1.08,1.44,14.2,83.1,1017.52,0,0,0,0,0.030479
2022/10/02 00:54:00.017,n,254,3.6,2.88,4.32,14.2,83.4,1017.52,0,0,0,0,0.032196
2022/10/02 00:55:00.003,n,268,3.96,3.24,5.4,14.2,83.3,1017.52,0,0,0,0,0.032196
2022/10/02 00:56:00.001,n,261,4.32,3.6,5.04,14.2,83.2,1017.42,0,0,0,0,0.030479
2022/10/02 00:57:00.001,n,268,2.88,2.16,3.6,14.2,83.5,1017.42,0,0,0,0,0.033073
2022/10/02 00:58:00.002,n,260,3.96,3.6,4.32,14.3,83.5,1017.42,0,0,0,0,0.030479
2022/10/02 00:59:00.001,n,260,1.8,1.44,1.8,14.3,83.4,1017.42,0,0,0,0,0.028725
2022/10/02 01:00:00.003,n,260,2.52,2.16,2.52,14.3,83.2,1017.42,0,0,0,0,0.029602
2022/10/02 01:01:00.006,n,232,1.08,0.72,1.08,14.2,83.2,1017.42,0,0,0,0,0.030479
2022/10/02 01:02:00.009,n,234,1.8,1.44,2.16,14.2,83.3,1017.42,0,0,0,0,0.027847
2022/10/02 01:03:00.012,n,270,1.8,1.44,2.52,14.2,83.4,1017.32,0,0,0,0,0.028725
2022/10/02 01:04:00.001,n,189,1.08,0.36,1.44,14.3,83.6,1017.32,0,0,0,0,0.028725
2022/10/02 01:05:00.001,n,265,2.16,1.08,3.24,14.3,83.5,1017.32,0,0,0,0,0.030479
2022/10/02 01:06:00.003,n,254,0.36,0.36,0.72,14.3,83.8,1017.32,0,0,0,0,0.027847
2022/10/02 01:07:00.003,n,133,1.44,0,1.8,14.3,83.5,1017.32,0,0,0,0,0.026131
2022/10/02 01:08:00.004,n,62,2.16,1.44,2.52,14.3,83.6,1017.22,0,0,0,0,0.026131
2022/10/02 01:09:00.008,n,127,1.8,1.8,2.16,14.3,83.4,1017.22,0,0,0,0,0.025253
2022/10/02 01:10:00.012,n,142,0.36,0.36,0.72,14.3,83.2,1017.22,0,0,0,0,0.025253
2022/10/02 01:11:00.014,n,137,3.6,3.24,4.32,14.2,83,1017.22,0,0,0,0,0.023499
2022/10/02 01:12:00.016,n,212,1.08,1.08,1.44,14.2,82.9,1017.22,0,0,0,0,0.023499
2022/10/02 01:13:00.001,n,184,6.12,5.76,6.12,14.2,83,1017.22,0,0,0,0,0.027847
2022/10/02 01:14:00.001,n,159,6.12,5.04,6.48,14.2,83,1017.22,0,0,0,0,0.024376
2022/10/02 01:15:00.001,n,168,7.2,6.84,7.56,14.2,83,1017.22,0,0,0,0,0.026131
2022/10/02 01:16:00.002,n,194,7.2,6.84,7.56,14.2,82.9,1017.12,0,0,0,0,0.024376
2022/10/02 01:17:00.001,n,201,1.8,1.08,3.24,14.2,82.9,1017.12,0,0,0,0,0.027847
2022/10/02 01:18:00.002,n,170,3.96,2.88,4.68,14.2,83.1,1017.12,0,0,0,0,0.025253
2022/10/02 01:19:00.001,n,180,5.04,3.6,6.48,14.2,83,1017.02,0,0,0,0,0.025253
2022/10/02 01:20:00.001,n,174,6.12,5.4,6.48,14.2,83.1,1017.02,0,0,0,0,0.021744
2022/10/02 01:21:00.004,n,162,4.32,3.96,5.04,14.2,83,1017.02,0,0,0,0,0.024376
2022/10/02 01:22:00.001,n,101,1.8,1.08,2.16,14.2,83.1,1017.02,0,0,0,0,0.022621
2022/10/02 01:23:00.001,n,171,3.24,1.8,3.96,14.2,83.1,1016.92,0,0,0,0,0.022621
2022/10/02 01:24:00.001,n,126,0.72,0.36,1.08,14.3,83.2,1016.92,0,0,0,0,0.022621
2022/10/02 01:25:00.002,n,212,2.88,2.52,3.24,14.3,83.3,1016.92,0,0,0,0,0.01915
2022/10/02 01:26:00.003,n,173,4.68,3.96,5.04,14.3,82.9,1016.92,0,0,0,0,0.026131
2022/10/02 01:27:00.007,n,156,2.52,1.8,2.88,14.3,82.8,1016.92,0,0,0,0,0.021744
2022/10/02 01:28:00.012,n,238,2.88,2.52,3.6,14.3,82.8,1016.92,0,0,0,0,0.023499
2022/10/02 01:29:00.016,n,219,1.44,1.44,1.8,14.3,82.9,1016.92,0,0,0,0,0.025253
2022/10/02 01:30:00.016,n,195,4.32,3.96,5.4,14.3,82.9,1016.92,0,0,0,0,0.021744
2022/10/02 01:31:00.002,n,241,2.88,2.52,3.24,14.3,83,1016.82,0,0,0,0,0.021744
2022/10/02 01:32:00.001,n,274,2.88,2.52,3.24,14.3,83,1016.82,0,0,0,0,0.023499
2022/10/02 01:33:00.001,n,270,2.88,2.88,3.24,14.4,82.9,1016.92,0,0,0,0,0.02697
2022/10/02 01:34:00.002,n,243,1.44,1.08,1.8,14.4,82.9,1016.92,0,0,0,0,0.023499
2022/10/02 01:35:00.001,n,252,3.6,2.88,3.96,14.4,82.9,1016.92,0,0,0,0,0.02697
2022/10/02 01:36:00.001,n,275,2.16,1.44,2.52,14.4,83.1,1016.92,0,0,0,0,0.023499
2022/10/02 01:37:00.002,n,236,2.16,1.8,2.88,14.4,83,1017.02,0,0,0,0,0.021744
2022/10/02 01:38:00.004,n,226,2.88,2.16,3.24,14.4,83.3,1017.02,0,0,0,0,0.028725
2022/10/02 01:39:00.009,n,281,3.96,3.24,4.68,14.4,83.3,1017.02,0,0,0,0,0.024376
2022/10/02 01:40:00.002,n,288,3.24,2.52,3.96,14.4,83.1,1017.02,0,0,0,0,0.024376
2022/10/02 01:41:00.001,n,230,1.8,1.44,2.16,14.4,83,1017.12,0,0,0,0,0.024376
2022/10/02 01:42:00.001,n,270,8.64,7.92,9.72,14.4,82.7,1017.12,0,0,0,0,0.027847
2022/10/02 01:43:00.001,n,265,6.84,6.84,7.2,14.4,82.6,1017.22,0,0,0,0,0.027847
2022/10/02 01:44:00.004,n,256,4.32,3.96,5.04,14.4,82.7,1017.22,0,0,0,0,0.026131
2022/10/02 01:45:00.006,n,211,2.88,2.16,3.24,14.3,82.7,1017.32,0,0,0,0,0.02697
2022/10/02 01:46:00.008,n,256,4.68,4.32,5.4,14.3,82.7,1017.32,0,0,0,0,0.028725
2022/10/02 01:47:00.012,n,267,6.12,5.76,6.48,14.3,82.6,1017.32,0,0,0,0,0.028725
2022/10/02 01:48:00.015,n,247,10.8,8.28,12.24,14.3,82.5,1017.32,0,0,0,0,0.028725
2022/10/02 01:49:00.002,n,264,10.08,9.72,11.16,14.3,82.3,1017.32,0,0,0,0,0.028725
2022/10/02 01:50:00.001,n,263,8.64,8.28,9,14.2,82.3,1017.32,0,0,0,0,0.030479
2022/10/02 01:51:00.002,n,262,6.12,5.04,7.92,14.2,82.5,1017.32,0,0,0,0,0.030479
2022/10/02 01:52:00.001,n,250,9,7.92,10.08,14.2,82.4,1017.22,0,0,0,0,0.031319
2022/10/02 01:53:00.003,n,281,8.28,7.56,9,14.2,82.5,1017.22,0,0,0,0,0.027847
2022/10/02 01:54:00.005,n,265,2.88,1.44,4.32,14.2,82.8,1017.22,0,0,0,0,0.029602
2022/10/02 01:55:00.010,n,276,3.96,3.6,4.68,14.2,82.6,1017.22,0,0,0,0,0.027847
2022/10/02 01:56:00.011,n,232,2.52,1.44,3.6,14.2,82.4,1017.22,0,0,0,0,0.031319
2022/10/02 01:57:00.015,n,316,2.52,1.8,2.88,14.1,82.4,1017.22,0,0,0,0,0.027847
2022/10/02 01:58:00.002,n,306,1.44,0.36,3.24,14.1,82.5,1017.12,0,0,0,0,0.029602
2022/10/02 01:59:00.002,n,251,4.68,3.96,5.04,14.1,82.4,1017.12,0,0,0,0,0.027847
2022/10/02 02:00:00.001,n,281,1.8,1.44,2.52,14.1,82.8,1017.12,0,0,0,0,0.030479
2022/10/02 02:01:00.001,n,280,2.88,2.52,2.88,14.1,82.6,1017.12,0,0,0,0,0.027847
2022/10/02 02:02:00.002,n,193,3.24,2.52,3.96,14.1,82.3,1017.12,0,0,0,0,0.028725
2022/10/02 02:03:00.002,n,180,5.76,5.4,6.48,14.1,82.6,1017.02,0,0,0,0,0.029602
2022/10/02 02:04:00.003,n,235,0.72,0.36,1.8,14.1,82.6,1017.02,0,0,0,0,0.029602
2022/10/02 02:05:00.016,n,62,1.08,0.72,1.08,14.1,82.5,1017.02,0,0,0,0,0.031319
2022/10/02 02:06:00.005,n,256,1.8,1.44,2.52,14.1,82.4,1017.02,0,0,0,0,0.031319
2022/10/02 02:07:00.001,n,146,1.08,0.36,1.44,14.2,82.5,1017.02,0,0,0,0,0.030479
2022/10/02 02:08:00.001,n,187,3.6,2.88,3.96,14.1,82,1017.02,0,0,0,0,0.031319
2022/10/02 02:09:00.001,n,130,4.68,4.32,5.04,14.1,82.2,1017.02,0,0,0,0,0.030479
2022/10/02 02:10:00.001,n,284,3.24,1.44,3.6,14.1,82.2,1017.02,0,0,0,0,0.030479
2022/10/02 02:11:00.002,n,213,1.8,1.44,2.16,14.2,82.3,1017.02,0,0,0,0,0.031319
2022/10/02 02:12:00.004,n,276,1.8,1.44,2.52,14.2,82.3,1017.02,0,0,0,0,0.032196
2022/10/02 02:13:00.009,n,328,1.8,1.08,2.52,14.2,82.5,1017.02,0,0,0,0,0.028725
2022/10/02 02:14:00.010,n,246,2.52,2.16,3.24,14.3,82.1,1017.02,0,0,0,0,0.029602
2022/10/02 02:15:00.013,n,280,2.88,2.52,3.96,14.3,82,1017.02,0,0,0,0,0.027847
2022/10/02 02:16:00.002,n,267,6.48,6.12,6.84,14.2,81.8,1017.02,0,0,0,0,0.029602
2022/10/02 02:17:00.004,n,300,6.12,5.04,7.2,14.2,81.7,1017.02,0,0,0,0,0.02697
2022/10/02 02:18:00.005,n,277,3.96,2.52,5.04,14.2,81.6,1017.02,0,0,0,0,0.031319
2022/10/02 02:19:00.002,n,274,4.32,3.24,5.4,14.2,81.4,1017.12,0,0,0,0,0.031319
2022/10/02 02:20:00.001,n,285,4.32,0.36,6.48,14.2,81.3,1017.12,0,0,0,0,0.030479
2022/10/02 02:21:00.004,n,258,6.84,5.76,8.64,14.1,81.2,1017.12,0,0,0,0,0.031319
2022/10/02 02:22:00.007,n,277,6.48,3.96,7.92,14.1,81,1017.22,0,0,0,0,0.032196
2022/10/02 02:23:00.009,n,295,2.88,1.8,4.68,14.1,81,1017.22,0,0,0,0,0.032196
2022/10/02 02:24:00.010,n,263,6.48,6.12,6.48,14.1,80.8,1017.32,0,0,0,0,0.030479
2022/10/02 02:25:00.002,n,259,10.08,9,10.440002,14.1,80.7,1017.32,0,0,0,0,0.030479
2022/10/02 02:26:00.002,n,256,6.12,2.16,7.2,14.1,80.7,1017.32,0,0,0,0,0.035706
2022/10/02 02:27:00.003,n,201,6.12,5.4,7.2,14.1,80.6,1017.42,0,0,0,0,0.033951
2022/10/02 02:28:00.001,n,257,7.2,5.76,9,14.1,81.2,1017.42,0,0,0,0,0.033073
2022/10/02 02:29:00.001,n,249,7.56,6.48,8.28,14.1,80.6,1017.42,0,0,0,0,0.033951
2022/10/02 02:30:00.001,n,247,10.08,8.28,14.04,14.1,79.8,1017.52,0,0,0,0,0.033073
2022/10/02 02:31:00.002,n,263,5.76,4.32,8.28,14,79.7,1017.52,0,0,0,0,0.033073
2022/10/02 02:32:00.004,n,234,6.12,5.4,6.84,14,80,1017.52,0,0,0,0,0.033951
2022/10/02 02:33:00.009,n,255,4.68,1.8,6.48,14,79.9,1017.52,0,0,0,0,0.030479
2022/10/02 02:34:00.002,n,261,7.56,6.84,8.64,14,79.8,1017.52,0,0,0,0,0.031319
2022/10/02 02:35:00.002,n,340,1.44,0.36,2.88,14,80.3,1017.62,0,0,0,0,0.033951
2022/10/02 02:36:00.001,n,244,9,4.32,10.8,14,79.5,1017.62,0,0,0,0,0.031319
2022/10/02 02:37:00.001,n,289,6.12,3.96,7.2,14,79.4,1017.52,0,0,0,0,0.031319
2022/10/02 02:38:00.007,n,26,3.24,2.16,4.68,14,79.4,1017.52,0,0,0,0,0.029602
2022/10/02 02:39:00.010,n,130,2.52,0.36,8.64,14,79.3,1017.42,0,0,0,0,0.031319
2022/10/02 02:40:00.001,n,129,1.8,1.08,3.6,14,79,1017.32,0.02,1.5,0,0,0.028725
2022/10/02 02:41:00.009,n,301,3.6,0.72,4.68,14,78.9,1017.32,0.06,2.4,0,0,0.028725
2022/10/02 02:42:00.013,n,345,1.8,0.72,3.6,14.1,79.9,1017.32,0.1,2,0,0,0.027847
2022/10/02 02:43:00.002,n,142,1.8,0.72,2.88,14.2,79.6,1017.32,0.12,1.4,0,0,0.029602
2022/10/02 02:44:00.002,n,264,1.08,0.72,1.44,14.2,79.3,1017.22,0.16,2.5,0,0,0.029602
2022/10/02 02:45:00.005,n,163,1.08,0.72,1.44,14.2,79.4,1017.22,0.19,1.3,0,0,0.027847
2022/10/02 02:46:00.001,n,206,1.08,0.72,1.44,14.2,79.2,1017.12,0.23,2.9,0,0,0.023499
2022/10/02 02:47:00.002,n,148,2.16,2.16,2.88,14.2,79.1,1017.12,0.25,1.1,0,0,0.025253
2022/10/02 02:48:00.001,n,165,2.52,1.44,3.6,14.2,78.7,1017.12,0.26,0.5,0,0,0.026131
2022/10/02 02:49:00.002,n,188,3.96,3.24,4.32,14.1,78.7,1017.12,0.27,0.4,0,0,0.027847
2022/10/02 02:50:00.005,n,312,2.16,1.8,2.52,14.1,79.5,1017.12,0.27,0.2,0,0,0.02697
2022/10/02 02:51:00.014,n,152,6.84,6.84,7.92,14.2,79.4,1017.12,0.28,0.5,0,0,0.023499
2022/10/02 02:52:00.001,n,176,2.52,2.16,2.88,14.1,78.5,1017.12,0.3,1.3,0,0,0.02697
2022/10/02 02:53:00.003,n,254,3.24,2.88,3.6,14,79.1,1017.02,0.33,1.3,0,0,0.01915
2022/10/02 02:54:00.001,n,179,2.16,1.8,2.88,14,79.1,1017.02,0.34,0.8,0,0,0.02697
2022/10/02 02:55:00.002,n,163,6.12,5.76,6.84,14,79.2,1016.92,0.34,0.2,0,0,0.025253
2022/10/02 02:56:00.001,n,184,10.8,10.08,11.88,13.9,78.9,1016.92,0.34,0.2,0,0,0.025253
2022/10/02 02:57:00.002,n,172,5.4,1.8,6.48,13.9,79,1016.92,0.34,0.1,0,0,0.025253
2022/10/02 02:58:00.005,n,173,6.84,5.76,9,13.8,79.5,1016.92,0.34,0,0,0,0.022621
2022/10/02 02:59:00.008,n,183,2.52,1.44,3.24,13.8,79.3,1016.92,0.34,0,0,0,0.021744
2022/10/02 03:00:00.010,n,213,5.76,4.68,6.48,13.8,79.6,1016.92,0.34,0,0,0,0.020027
2022/10/02 03:01:00.001,n,216,2.16,1.8,2.16,13.8,79.8,1016.92,0.34,0,0,0,0.01915
2022/10/02 03:02:00.001,n,249,3.24,2.88,3.96,13.8,80.4,1017.02,0.34,0,0,0,0.01915
2022/10/02 03:03:00.001,n,166,2.52,2.52,2.88,13.9,80.4,1017.02,0.34,0,0,0,0.01915
2022/10/02 03:04:00.004,n,134,5.04,3.6,5.4,13.9,80.3,1017.02,0.34,0,0,0,0.014763
2022/10/02 03:05:00.006,n,132,2.88,2.88,3.24,13.9,80.3,1017.02,0.34,0,0,0,0.023537
2022/10/02 03:06:00.006,n,263,2.16,1.44,2.52,13.8,80.4,1016.92,0.34,0,0,0,0.023537
2022/10/02 03:07:00.008,n,171,2.16,1.8,2.16,13.8,81,1016.92,0.34,0,0,0,0.026131
2022/10/02 03:08:00.012,n,292,2.52,2.16,2.52,13.8,81,1017.02,0.34,0,0,0,0.027885
2022/10/02 03:09:00.015,n,195,4.32,3.24,5.04,13.8,80.2,1017.02,0.34,0,0,0,0.022659
2022/10/02 03:10:00.001,n,151,3.24,2.16,3.6,13.7,80.3,1017.02,0.34,0,0,0,0.023537
2022/10/02 03:11:00.001,n,238,0.72,0.36,1.8,13.7,80.7,1016.92,0.34,0,0,0,0.025253
2022/10/02 03:12:00.001,n,278,5.04,3.96,5.4,13.7,80.5,1016.92,0.34,0,0,0,0.020905
2022/10/02 03:13:00.001,n,273,4.32,3.96,4.68,13.7,80.4,1016.82,0.34,0,0,0,0.022659
2022/10/02 03:14:00.004,n,185,1.8,0.72,3.24,13.7,80.7,1016.82,0.34,0,0,0,0.023537
2022/10/02 03:15:00.008,n,186,3.24,2.88,3.96,13.6,80.5,1016.82,0.34,0,0,0,0.020065
2022/10/02 03:16:00.010,n,231,2.16,1.8,2.52,13.6,80.5,1016.82,0.34,0,0,0,0.018272
2022/10/02 03:17:00.013,n,165,0.72,0.36,1.08,13.6,80.8,1016.82,0.34,0,0,0,0.017433
2022/10/02 03:18:00.017,n,190,6.48,6.12,8.28,13.6,80.7,1016.82,0.34,0,0,0,0.018272
2022/10/02 03:19:00.001,n,260,2.16,1.8,2.52,13.6,80.9,1016.82,0.34,0,0,0,0.017433
2022/10/02 03:20:00.002,n,256,2.88,2.16,3.6,13.6,80.6,1016.82,0.34,0,0,0,0.017433
2022/10/02 03:21:00.001,n,261,2.88,2.52,3.24,13.6,80.6,1016.82,0.34,0,0,0,0.014839
2022/10/02 03:22:00.002,n,289,2.52,2.16,3.6,13.5,80.7,1016.92,0.34,0,0,0,0.028725
2022/10/02 03:23:00.002,n,263,2.52,1.8,2.88,13.5,80.7,1016.82,0.34,0,0,0,0.031357
2022/10/02 03:24:00.002,n,284,2.16,1.08,3.6,13.5,80.6,1016.82,0.34,0,0,0,0.030479
2022/10/02 03:25:00.006,n,270,4.32,3.96,5.4,13.5,80.6,1016.82,0.34,0,0,0,0.027008
2022/10/02 03:26:00.012,n,264,4.32,3.96,4.68,13.5,80.5,1016.82,0.34,0,0,0,0.026131
2022/10/02 03:27:00.016,n,311,1.8,1.08,2.16,13.5,80.6,1016.82,0.34,0,0,0,0.031357
2022/10/02 03:28:00.002,n,220,1.8,0.72,2.16,13.5,80.7,1016.82,0.34,0,0,0,0.024376
2022/10/02 03:29:00.005,n,197,0.72,0.72,0.72,13.5,80.7,1016.82,0.34,0,0,0,0.027008
2022/10/02 03:30:00.215,n,260,3.24,2.88,4.32,13.5,81,1016.82,0.34,0,0,0,0.026131
2022/10/02 03:31:00.001,n,223,1.44,1.08,1.8,13.5,80.9,1016.72,0.34,0,0,0,0.025215
2022/10/02 03:32:00.001,n,259,2.88,2.52,3.6,13.5,80.9,1016.72,0.34,0,0,0,0.022621
2022/10/02 03:33:00.002,n,222,2.16,1.8,2.52,13.5,80.7,1016.72,0.34,0,0,0,0.025215
2022/10/02 03:34:00.007,n,271,2.88,2.16,3.24,13.4,80.8,1016.82,0.34,0,0,0,0.025215
2022/10/02 03:35:00.001,n,179,1.08,0.36,1.44,13.5,81.2,1016.82,0.34,0,0,0,0.021782
2022/10/02 03:36:00.004,n,278,2.88,1.8,4.32,13.5,81.3,1016.82,0.34,0,0,0,0.021782
2022/10/02 03:37:00.001,n,220,2.52,1.8,3.24,13.5,81.2,1016.82,0.34,0,0,0,0.023499
2022/10/02 03:38:00.001,n,297,0.36,0.36,1.08,13.5,81.5,1016.82,0.34,0,0,0,0.023499
2022/10/02 03:39:00.003,n,289,0.72,0.36,1.08,13.5,81.5,1016.82,0.34,0,0,0,0.021782
2022/10/02 03:40:00.006,n,234,2.52,2.16,2.88,13.5,81.8,1016.82,0.34,0,0,0,0.021782
2022/10/02 03:41:00.008,n,279,2.52,1.44,3.96,13.6,81.6,1016.82,0.34,0,0,0,0.022621
2022/10/02 03:42:00.012,n,98,1.08,0.36,1.08,13.6,81.6,1016.72,0.34,0,0,0,0.01915
2022/10/02 03:43:00.001,n,200,1.8,1.44,2.52,13.5,81.6,1016.72,0.34,0,0,0,0.01915
2022/10/02 03:44:00.005,n,271,1.8,1.44,2.88,13.6,81.7,1016.72,0.34,0,0,0,0.022621
2022/10/02 03:45:00.008,n,220,1.8,0.72,2.16,13.5,81.5,1016.72,0.34,0,0,0,0.020027
2022/10/02 03:46:00.001,n,239,1.8,1.8,2.16,13.5,81.6,1016.72,0.34,0,0,0,0.020866
2022/10/02 03:47:00.002,n,275,2.52,1.8,2.88,13.5,81.8,1016.62,0.34,0,0,0,0.028725
2022/10/02 03:48:00.002,n,202,1.8,1.44,2.52,13.5,81.6,1016.62,0.34,0,0,0,0.031319
2022/10/02 03:49:00.001,n,278,5.4,5.4,6.12,13.5,81.6,1016.62,0.34,0,0,0,0.027847
2022/10/02 03:50:00.002,n,236,5.4,4.32,6.48,13.5,81.1,1016.62,0.34,0,0,0,0.027847
2022/10/02 03:51:00.004,n,138,3.24,1.8,4.32,13.4,81.3,1016.62,0.34,0,0,0,0.031319
2022/10/02 03:52:00.008,n,156,1.08,0.36,2.16,13.4,81.6,1016.52,0.34,0,0,0,0.031319
2022/10/02 03:53:00.011,n,193,2.52,2.16,3.24,13.5,81.5,1016.62,0.34,0,0,0,0.02697
2022/10/02 03:54:00.014,n,150,1.8,1.08,2.52,13.5,81.5,1016.62,0.34,0,0,0,0.025253
2022/10/02 03:55:00.002,n,168,3.6,2.88,6.84,13.5,81,1016.62,0.34,0,0,0,0.033951
2022/10/02 03:56:00.003,n,146,4.32,0.72,6.12,13.4,80.8,1016.52,0.34,0,0,0,0.030479
2022/10/02 03:57:00.006,n,153,8.64,5.76,9.72,13.4,80.5,1016.52,0.34,0,0,0,0.028725
2022/10/02 03:58:00.001,n,162,7.2,6.12,8.28,13.4,80.6,1016.52,0.34,0,0,0,0.026093
2022/10/02 03:59:00.002,n,190,9.36,8.64,10.8,13.4,80.3,1016.42,0.34,0,0,0,0.032196
2022/10/02 04:00:00.004,n,167,5.76,1.44,9,13.3,80.2,1016.42,0.34,0,0,0,0.025253
2022/10/02 04:01:00.006,n,186,7.2,6.48,7.92,13.3,80,1016.42,0.34,0,0,0,0.030479
2022/10/02 04:02:00.009,n,177,2.88,1.8,3.96,13.3,80.1,1016.42,0.34,0,0,0,0.027847
2022/10/02 04:03:00.011,n,190,7.56,6.84,8.64,13.3,80.2,1016.42,0.34,0,0,0,0.025253
2022/10/02 04:04:00.001,n,208,4.32,3.24,5.76,13.3,79.8,1016.42,0.34,0,0,0,0.024376
2022/10/02 04:05:00.001,n,215,6.84,6.48,7.2,13.3,80,1016.42,0.34,0,0,0,0.025253
2022/10/02 04:06:00.004,n,189,4.32,3.6,4.68,13.3,79.9,1016.42,0.34,0,0,0,0.02697
2022/10/02 04:07:00.006,n,207,2.52,1.44,3.96,13.3,80.1,1016.52,0.34,0,0,0,0.025253
2022/10/02 04:08:00.009,n,278,3.6,2.52,5.04,13.3,79.9,1016.52,0.34,0,0,0,0.026093
2022/10/02 04:09:00.001,n,232,2.52,1.8,2.88,13.3,79.9,1016.52,0.34,0,0,0,0.024376
2022/10/02 04:10:00.002,n,171,3.96,3.24,4.32,13.3,79.8,1016.52,0.34,0,0,0,0.025253
2022/10/02 04:11:00.005,n,20,0.36,0,1.08,13.3,80,1016.52,0.34,0,0,0,0.023499
2022/10/02 04:12:00.009,n,270,3.24,3.24,3.96,13.3,80.2,1016.52,0.34,0,0,0,0.020905
2022/10/02 04:13:00.002,n,251,3.96,1.8,5.76,13.4,80.6,1016.52,0.34,0,0,0,0.021744
2022/10/02 04:14:00.002,n,258,2.52,1.8,2.88,13.4,80.2,1016.52,0.34,0,0,0,0.024376
2022/10/02 04:15:00.002,n,208,1.08,0.72,1.44,13.3,79.9,1016.52,0.34,0,0,0,0.023499
2022/10/02 04:16:00.009,n,253,3.96,3.6,4.68,13.3,80,1016.62,0.34,0,0,0,0.022621
2022/10/02 04:17:00.001,n,243,1.8,0.36,2.88,13.3,79.8,1016.62,0.34,0,0,0,0.028687
2022/10/02 04:18:00.001,n,230,6.12,5.04,7.92,13.2,79.8,1016.52,0.34,0,0,0,0.029564
2022/10/02 04:19:00.002,n,261,3.6,2.52,4.32,13.2,79.9,1016.52,0.34,0,0,0,0.028687
2022/10/02 04:20:00.004,n,227,1.8,1.44,1.8,13.2,80.1,1016.52,0.34,0,0,0,0.024338
2022/10/02 04:21:00.015,n,240,1.8,1.8,1.8,13.2,80.5,1016.52,0.34,0,0,0,0.02697
2022/10/02 04:22:00.001,n,336,0.72,0.72,1.08,13.2,80,1016.52,0.34,0,0,0,0.023499
2022/10/02 04:23:00.002,n,34,1.44,0.72,2.16,13.2,80.4,1016.62,0.34,0,0,0,0.028687
2022/10/02 04:24:00.004,n,292,1.8,1.44,2.16,13.3,80.5,1016.62,0.34,0,0,0,0.026093
2022/10/02 04:25:00.001,n,197,1.44,1.08,1.8,13.3,80.4,1016.62,0.34,0,0,0,0.024338
2022/10/02 04:26:00.001,n,172,1.08,1.08,1.08,13.3,80.4,1016.62,0.34,0,0,0,0.020866
2022/10/02 04:27:00.001,n,305,0.72,0.36,1.44,13.3,80.2,1016.62,0.34,0,0,0,0.025215
2022/10/02 04:28:00.003,n,258,2.16,1.44,2.88,13.2,80.1,1016.62,0.34,0,0,0,0.028687
2022/10/02 04:29:00.006,n,249,2.88,2.52,3.6,13.2,80.3,1016.62,0.34,0,0,0,0.024338
2022/10/02 04:30:00.009,n,324,1.44,1.08,2.16,13.2,80.3,1016.62,0.34,0,0,0,0.022621
2022/10/02 04:31:00.001,n,270,2.52,2.16,2.88,13.2,80.5,1016.62,0.34,0,0,0,0.025215
2022/10/02 04:32:00.001,n,275,3.96,2.88,4.68,13.2,80.3,1016.62,0.34,0,0,0,0.026093
2022/10/02 04:33:00.003,n,258,3.96,3.24,5.04,13.2,80.5,1016.52,0.34,0,0,0,0.025215
2022/10/02 04:34:00.006,n,279,2.52,2.16,2.88,13.2,80.8,1016.52,0.34,0,0,0,0.021744
2022/10/02 04:35:00.009,n,160,1.8,1.44,2.52,13.2,80.6,1016.52,0.34,0,0,0,0.022621
2022/10/02 04:36:00.001,n,247,4.32,3.96,4.68,13.2,80.5,1016.52,0.34,0,0,0,0.021744
2022/10/02 04:37:00.001,n,245,5.4,4.68,6.12,13.2,80.1,1016.52,0.34,0,0,0,0.021744
2022/10/02 04:38:00.011,n,295,0.72,0.36,1.08,13.1,80.1,1016.52,0.34,0,0,0,0.018272
2022/10/02 04:39:00.014,n,246,6.12,5.4,7.2,13.1,80.2,1016.52,0.34,0,0,0,0.024338
2022/10/02 04:40:00.001,n,243,3.24,2.52,3.96,13.1,80.2,1016.52,0.34,0,0,0,0.021744
2022/10/02 04:41:00.001,n,216,2.16,2.16,2.88,13.1,80.5,1016.62,0.34,0,0,0,0.020866
2022/10/02 04:42:00.006,n,314,3.24,0.72,3.96,13.1,80.4,1016.62,0.34,0,0,0,0.020866
2022/10/02 04:43:00.001,n,249,3.96,3.24,5.04,13.1,80.3,1016.62,0.34,0,0,0,0.019112
2022/10/02 04:44:00.001,n,261,0.72,0.36,1.8,13.1,80.2,1016.62,0.34,0,0,0,0.019989
2022/10/02 04:45:00.004,n,199,3.6,2.88,4.32,13.1,80.4,1016.72,0.34,0,0,0,0.021744
2022/10/02 04:46:00.002,n,218,6.48,5.76,7.56,13.1,80.4,1016.62,0.34,0,0,0,0.019112
2022/10/02 04:47:00.003,n,237,3.96,3.24,4.32,13.1,80.8,1016.62,0.34,0,0,0,0.021744
2022/10/02 04:48:00.007,n,229,1.44,1.08,1.8,13.1,80.8,1016.62,0.34,0,0,0,0.025215
2022/10/02 04:49:00.001,n,320,1.44,1.08,1.8,13.2,80.9,1016.72,0.34,0,0,0,0.02697
2022/10/02 04:50:00.001,n,277,2.52,2.16,2.88,13.2,80.7,1016.72,0.34,0,0,0,0.028763